Regional Weather Roundup
Issued by NWS

Home | Current Version | Previous Version | Graphics & Text | Print | Product List | Glossary Off
Versions: 1 2 3 4 5 6 7 8 9 10 11 12 13 14 15 16 17 18 19 20 21 22 23 24 25 26 27 28 29 30 31 32 33 34 35 36 37 38 39 40 41 42 43 44 45 46 47 48 49 50

000
ASUS43 KLSX 062059
RWRMO

WEATHER SUMMARY FOR MISSOURI
NATIONAL WEATHER SERVICE SPRINGFIELD MO
400 PM CDT MON JUL 06 2015

NOTE: "FAIR" INDICATES FEW OR NO CLOUDS BELOW 12,000 FEET WITH NO
       SIGNIFICANT WEATHER AND/OR OBSTRUCTIONS TO VISIBILITY.
       CURRENT SKY AND/OR WEATHER CONDITIONS ARE NOT AVAILABLE FOR
       CHILLICOTHE AND FARMINGTON.

MOZ001>031-035>038-043-044-053-054-062200-
...NORTHERN AND WESTERN MISSOURI...

CITY           SKY/WX    TMP DP  RH WIND       PRES   REMARKS
KANSAS CTY INT CLOUDY    85  75  72 S17       29.77F HX  93
KANSAS C DTWN  LGT RAIN  89  74  60 S20G28    29.78F HX  98
LEE`S SUMMIT   PTSUNNY   88  74  63 S13G24    29.81F HX  96
ST JOSEPH      LGT RAIN  72  70  93 MISG      29.86S
CHILLICOTHE      N/A     85  75  72 S6        29.84F HX  93
KIRKSVILLE     CLOUDY    85  75  72 S10       29.85F HX  93

$$
MOZ066>068-077>081-088>096-101>105-062200-
...SOUTHWEST MISSOURI...

CITY           SKY/WX    TMP DP  RH WIND       PRES   REMARKS
SPRINGFIELD    PTSUNNY   85  72  65 S16       29.95F HX  91
JOPLIN         MOSUNNY   86  75  69 S17G28    29.91F HX  95

$$
MOZ032>034-039>042-045>050-055>058-069>072-062200-
...CENTRAL MISSOURI...

CITY           SKY/WX    TMP DP  RH WIND       PRES   REMARKS
COLUMBIA       PTSUNNY   87  75  67 SW14      29.91F HX  96
JEFFERSON CITY MOSUNNY   87  74  64 S12       29.89F HX  95
ROLLA          PTSUNNY   84  74  71 S10       29.94F HX  91
SEDALIA        MOSUNNY   89  74  60 S15       29.89F HX  98
WHITEMAN AFB   SUNNY     88  76  66 S17       29.84F HX  99
OSAGE BEACH    PTSUNNY   86  73  66 S9        29.92F HX  93

$$
MOZ051-052-059>065-062200-
...EAST CENTRAL MISSOURI...

CITY           SKY/WX    TMP DP  RH WIND       PRES   REMARKS
ST LOUIS INTL  LGT RAIN  83  73  72 VRB5      29.95F
SPIRIT OF STL  CLOUDY    86  73  65 NW5       29.92F HX  93
ST CHARLES     CLOUDY    81  70  69 SE6       29.93S

$$
MOZ072>076-082>087-097>100-106>115-062200-
...SOUTH CENTRAL AND SOUTHEAST MISSOURI...

CITY           SKY/WX    TMP DP  RH WIND       PRES   REMARKS
CAPE GIRARDEAU MOSUNNY   85  75  72 S10       29.99F HX  93
FARMINGTON     CLOUDY    82  73  74 S14       30.02F
POPLAR BLUFF   MOSUNNY   84  75  74 S9        29.98F HX  92
WEST PLAINS    CLOUDY    84  72  67 S10       30.01F

$$


USA.gov is the U.S. government's official web portal to all federal, state and local government web resources and services.